This is the latest recevied weather packets stored in our database for station/object DB8NZ-11. If no packets are shown the sender has not sent any weather packets the latest 10 day(s).
| Time | Temp. | Humidity | Pressure | Rain* | Wind** | Luminosity | Snow |
|---|---|---|---|---|---|---|---|
| 1777516271 | 3.89° C | 45% | 1033.8 hPa | - | - | - | - |
| 1777515371 | 4.44° C | 44% | 1033.9 hPa | - | - | - | - |
| 1777514471 | 4.44° C | 46% | 1033.8 hPa | - | - | - | - |
| 1777513571 | 3.89° C | 46% | 1033.8 hPa | - | - | - | - |
| 1777512670 | 3.89° C | 48% | 1033.7 hPa | - | - | - | - |
| 1777511770 | 3.89° C | 49% | 1033.8 hPa | - | - | - | - |
| 1777510870 | 3.89° C | 48% | 1033.8 hPa | - | - | - | - |
| 1777509970 | 4.44° C | 48% | 1033.8 hPa | - | - | - | - |
| 1777509070 | 4.44° C | 48% | 1033.6 hPa | - | - | - | - |
| 1777507269 | 5° C | 48% | 1033.7 hPa | - | - | - | - |
| 1777506369 | 5° C | 47% | 1033.5 hPa | - | - | - | - |
| 1777505469 | 5.56° C | 46% | 1033.3 hPa | - | - | - | - |
| 1777504568 | 6.11° C | 46% | 1033.1 hPa | - | - | - | - |
| 1777503668 | 6.11° C | 44% | 1033.1 hPa | - | - | - | - |
| 1777503173 | 6.67° C | 44% | 1033 hPa | - | - | - | - |
| 1777502273 | 6.67° C | 42% | 1032.9 hPa | - | - | - | - |
| 1777501373 | 7.22° C | 43% | 1032.7 hPa | - | - | - | - |
| 1777500473 | 7.78° C | 42% | 1032.5 hPa | - | - | - | - |
| 1777499572 | 8.33° C | 39% | 1032.4 hPa | - | - | - | - |
| 1777498672 | 8.89° C | 35% | 1032.2 hPa | - | - | - | - |
| 1777497772 | 9.44° C | 34% | 1032.1 hPa | - | - | - | - |
| 1777496872 | 10° C | 33% | 1032 hPa | - | - | - | - |
| 1777495972 | 10.56° C | 32% | 1031.7 hPa | - | - | - | - |
| 1777495072 | 10.56° C | 32% | 1031.6 hPa | - | - | - | - |
| 1777494172 | 11.11° C | 31% | 1031.3 hPa | - | - | - | - |
* Rain since midnight (hover to see other rain measurements)
** Current wind speed in m/s (hover to see current wind gust speed)